DateTimeUTC,F1_A11,F1_S11,BsB_S11,BsG_S11,BsR_S11,BbsB_S11,BbsG_S11,BbsR_S11,BaB_A11,BaG_A11,BaR_A11,Tu_S11,T_S11,Uu_S11,U_S11,P_S11,T1_A11
2021-01-08T19:00:00Z,00000200,21000000,,,,,,,0000.09,-000.18,-000.34,15.2,22.7,,00.0,0639.6,30.8
2021-01-08T19:01:00Z,00000200,21000000,,,,,,,0000.02,-000.20,0000.05,15.1,22.7,,00.0,0639.6,30.8
2021-01-08T19:02:00Z,00000200,21000000,,,,,,,-000.21,-000.29,-000.07,15.1,22.7,,00.0,0639.6,30.7
2021-01-08T19:03:00Z,00000200,61000000,,,,,,,-000.04,0000.20,-000.08,15.1,22.7,,00.0,0639.5,30.7
2021-01-08T19:04:00Z,00000200,41000000,0000.61,0000.48,0000.14,0000.14,0000.22,0000.10,-000.08,-000.09,-000.05,15.3,22.4,,00.0,0640.4,30.7
2021-01-08T19:05:00Z,00000200,01000000,0000.31,0000.53,0000.36,0000.59,-000.07,-000.13,0000.32,0000.12,-000.07,15.4,22.4,,00.0,0640.4,30.7
2021-01-08T19:06:00Z,00000200,01000000,0000.38,0000.39,0000.62,-000.57,-000.20,0000.35,0000.05,0000.08,0000.41,15.4,22.3,,00.0,0640.4,30.7
2021-01-08T19:07:00Z,00000200,01000000,0000.70,0000.67,0000.41,0000.18,0000.08,-000.10,0000.40,-000.15,-000.01,15.4,22.3,,00.0,0640.5,30.7
2021-01-08T19:08:00Z,00000200,01000000,0000.15,0000.44,0000.31,-000.06,0000.20,0000.07,-000.13,0000.17,0000.05,15.5,22.4,,00.0,0640.5,30.7
2021-01-08T19:09:00Z,00000200,01000000,0000.74,0000.58,0000.26,0000.58,0000.02,0000.11,-000.18,0000.01,-000.08,15.5,22.4,,00.0,0640.5,30.7
2021-01-08T19:10:00Z,00000200,01000000,0000.66,0000.52,0000.41,-000.25,0000.11,0000.03,0000.56,0000.23,0000.25,15.5,22.3,,00.0,0640.5,30.8
2021-01-08T19:11:00Z,00000200,01000000,-000.10,0000.34,0000.44,0000.57,0000.09,-000.08,-000.01,0000.09,0000.28,15.5,22.3,,00.0,0640.5,30.8
2021-01-08T19:12:00Z,00000200,01000000,0000.56,0000.36,0000.38,-000.09,0000.08,0000.10,-000.05,-000.21,0000.04,15.6,22.3,,00.0,0640.5,30.8
2021-01-08T19:13:00Z,00000200,01000000,-000.23,0000.32,0000.44,0000.51,-000.08,-000.01,0000.09,0000.40,-000.12,15.6,22.3,,00.0,0640.5,30.8
2021-01-08T19:14:00Z,00000200,01000000,0000.34,0000.34,0000.44,0000.17,0000.06,0000.05,-000.25,0000.06,-000.05,15.6,22.3,,00.0,0640.6,30.8
2021-01-08T19:15:00Z,00000200,01000000,0000.93,0000.32,0000.14,0000.13,-000.10,0000.16,0000.21,-000.02,-000.18,15.6,22.3,,00.0,0640.6,30.8
2021-01-08T19:16:00Z,00000200,01000000,0000.92,0000.31,0000.62,0000.22,0000.22,0000.08,0000.21,-000.01,0000.25,15.6,22.3,,00.0,0640.6,30.7
2021-01-08T19:17:00Z,00000200,01000000,0001.16,0000.35,0000.33,0000.70,0000.07,0000.19,-000.44,-000.09,-000.29,15.5,22.2,,00.0,0640.6,30.7
2021-01-08T19:18:00Z,00000200,01000000,-000.05,-000.03,0000.28,0000.44,0000.24,-000.02,-000.02,-000.01,0000.25,15.4,22.2,,00.0,0640.6,30.7
2021-01-08T19:19:00Z,00000200,01000000,0000.31,-000.17,0000.37,0000.54,0000.00,-000.10,0000.50,0000.19,0000.27,15.4,22.2,,00.0,0640.6,30.7
2021-01-08T19:20:00Z,00000200,01000000,0001.34,0000.58,0000.27,0000.35,-000.06,0000.09,-000.36,-000.08,-000.52,15.4,22.2,,00.0,0640.6,30.7
2021-01-08T19:21:00Z,00000200,01000000,0000.25,0000.37,0000.36,0000.72,-000.25,0000.04,0000.06,0000.20,0000.33,15.4,22.2,,00.0,0640.7,30.7
2021-01-08T19:22:00Z,00000200,01000000,-000.42,0000.54,0000.27,0000.23,-000.01,0000.14,0000.22,0000.03,0000.12,15.5,22.2,,00.0,0640.7,30.7
2021-01-08T19:23:00Z,00000200,01000000,0000.35,0000.57,0000.21,-000.56,0000.13,-000.01,0000.20,0000.30,0000.14,15.5,22.2,,00.0,0640.7,30.7
2021-01-08T19:24:00Z,00000200,01000000,0001.31,-000.04,0000.29,0000.37,0000.06,0000.14,-000.04,-000.26,-000.07,15.4,22.2,,00.0,0640.7,30.7
2021-01-08T19:25:00Z,00000200,01000000,0000.12,0000.24,0000.10,-000.42,-000.07,-000.15,0000.12,-000.01,0000.08,15.4,22.1,,00.0,0640.7,30.7
2021-01-08T19:26:00Z,00000200,01000000,0000.50,0000.27,0000.20,0000.51,0000.07,0000.06,-000.05,-000.10,-000.24,15.3,22.1,,00.0,0640.7,30.7
2021-01-08T19:27:00Z,00000200,01000000,0000.08,0000.33,0000.34,0000.32,0000.25,0000.01,-000.10,0000.15,-000.20,15.2,22.1,,00.0,0640.7,30.7
2021-01-08T19:28:00Z,00000200,01000000,0000.39,0000.50,0000.41,0000.05,-000.16,0000.14,0000.24,-000.06,0000.46,15.1,22.0,,00.0,0640.6,30.6
2021-01-08T19:29:00Z,00000200,01000000,0000.67,0000.59,0000.64,-000.60,-000.06,0000.23,-000.06,-000.26,-000.24,14.9,21.9,,00.0,0640.6,30.6
2021-01-08T19:30:00Z,00000200,01000000,0000.78,0000.21,0000.16,0000.40,-000.13,0000.09,-000.03,0000.07,0000.16,14.8,21.9,,00.0,0640.6,30.6
2021-01-08T19:31:00Z,00000200,01000000,0000.32,0000.16,0000.26,0000.09,-000.02,0000.08,0000.14,-000.06,-000.06,14.7,21.8,,00.0,0640.6,30.6
2021-01-08T19:32:00Z,00000200,01000000,0000.44,0000.24,0000.33,0000.30,0000.32,0000.10,-000.16,-000.54,-000.23,14.6,21.7,,00.0,0640.6,30.6
2021-01-08T19:33:00Z,00000200,01000000,0000.69,0000.29,0000.49,0000.63,0000.23,0000.28,0000.22,0000.54,0000.62,14.6,21.7,,00.0,0640.6,30.6
2021-01-08T19:34:00Z,00000200,01000000,0000.64,0000.58,0000.44,0000.82,0000.06,0000.17,-000.04,0000.25,-000.25,14.6,21.7,,00.0,0640.6,30.6
2021-01-08T19:35:00Z,00000200,01000000,0000.25,0000.54,0000.34,0000.58,0000.07,0000.20,0000.49,0000.22,0000.10,14.6,21.6,,00.0,0640.6,30.6
2021-01-08T19:36:00Z,00000200,01000000,0000.49,0000.06,0000.27,0000.31,-000.02,0000.00,-000.14,0000.02,-000.05,14.6,21.6,,00.0,0640.7,30.6
2021-01-08T19:37:00Z,00000200,01000000,0000.86,0000.37,0000.37,-000.15,-000.01,0000.12,-000.08,0000.10,0000.18,14.6,21.6,,00.0,0640.7,30.6
2021-01-08T19:38:00Z,00000200,01000000,0000.59,0000.37,0000.48,0000.02,0000.02,0000.03,0000.25,0000.28,0000.28,14.7,21.6,,00.0,0640.7,30.6
2021-01-08T19:39:00Z,00000200,01000000,0000.37,0000.16,0000.02,0000.22,0000.11,0000.25,0000.18,0000.07,-000.35,14.7,21.6,,00.0,0640.7,30.6
2021-01-08T19:40:00Z,00000200,01000000,0000.62,0000.45,0000.38,0000.59,0000.08,0000.11,-000.10,-000.06,0000.28,14.7,21.6,,00.0,0640.7,30.7
2021-01-08T19:41:00Z,00000200,01000000,0000.68,0000.25,0000.53,0000.27,0000.01,0000.23,0000.12,0000.09,-000.20,14.7,21.6,,00.0,0640.8,30.7
2021-01-08T19:42:00Z,00000200,01000000,0000.98,0000.34,0000.41,0000.48,0000.15,0000.17,0000.10,0000.31,0000.28,14.8,21.6,,00.0,0640.8,30.7
2021-01-08T19:43:00Z,00000200,01000000,0000.39,0000.58,-000.05,0000.13,0000.07,0000.02,0000.23,-000.35,0000.02,14.8,21.6,,00.0,0640.8,30.7
2021-01-08T19:44:00Z,00000200,01000000,0000.65,0000.37,0000.17,-000.05,-000.03,0000.14,-000.22,0000.25,-000.18,14.8,21.6,,00.0,0640.8,30.7
2021-01-08T19:45:00Z,00000200,01000000,0000.50,0000.26,0000.22,0000.40,0000.10,0000.02,0000.04,0000.10,-000.02,14.7,21.6,,00.0,0640.7,30.6
2021-01-08T19:46:00Z,00000200,01000000,0001.23,0000.07,0000.54,0000.53,-000.16,0000.17,0000.05,0000.05,0000.05,14.6,21.5,,00.0,0640.8,30.6
2021-01-08T19:47:00Z,00000200,01000000,0001.02,0000.49,0000.42,0000.34,0000.01,0000.37,-000.03,-000.41,0000.01,14.5,21.4,,00.0,0640.8,30.6
2021-01-08T19:48:00Z,00000200,01000000,0000.13,0000.37,0000.36,0000.27,0000.18,-000.12,0000.05,-000.04,0000.39,14.4,21.4,,00.0,0640.8,30.6
2021-01-08T19:49:00Z,00000200,01000000,0001.03,0000.33,0000.12,0000.37,-000.02,-000.02,0000.10,0000.45,-000.37,14.4,21.3,,00.0,0640.8,30.6
2021-01-08T19:50:00Z,00000200,01000000,0000.52,0000.66,0000.28,0000.37,0000.37,-000.30,0000.28,-000.11,0000.23,14.4,21.4,,00.0,0640.8,30.6
2021-01-08T19:51:00Z,00000200,01000000,0000.68,0000.45,0000.40,0000.11,0000.27,-000.14,-000.07,0000.14,0000.29,14.5,21.3,,00.0,0640.9,30.6
2021-01-08T19:52:00Z,00000200,01000000,0001.00,0000.07,0000.49,-000.10,-000.16,-000.01,0000.31,0000.35,-000.05,14.5,21.4,,00.0,0640.9,30.6
2021-01-08T19:53:00Z,00000200,01000000,0000.64,0000.42,0000.17,-000.23,0000.19,0000.12,0000.09,0000.02,0000.07,14.5,21.4,,00.0,0640.9,30.6
2021-01-08T19:54:00Z,00000200,01000000,0000.30,0000.04,0000.28,0000.37,0000.01,0000.07,0000.21,0000.35,0000.25,14.6,21.4,,00.0,0640.9,30.6
2021-01-08T19:55:00Z,00000200,01000000,0000.66,0000.44,0000.02,0000.12,0000.10,-000.08,-000.21,0000.15,-000.11,14.6,21.4,,00.0,0640.9,30.6
2021-01-08T19:56:00Z,00000200,01000000,0000.79,0000.40,0000.26,0000.71,-000.02,0000.35,0000.19,-000.46,0000.01,14.6,21.4,,00.0,0640.9,30.7
2021-01-08T19:57:00Z,00000200,41000000,,,,,,,0000.54,0000.58,0000.50,14.6,21.4,,00.0,0641.0,30.7
2021-01-08T19:58:00Z,00000200,61000000,,,,,,,-000.06,-000.05,0000.17,14.2,21.6,,00.0,0640.1,30.7
2021-01-08T19:59:00Z,00000200,21000000,,,,,,,-000.32,0000.13,-000.41,14.2,21.7,,00.0,0640.1,30.7
